Find Starlink 33579

NORAD ID: 62764 Int'l Des: 2025-015 Owner: SPXS Country: US Constellation: starlink operational
LEOCIRCULAR

Current View

Loading 3D Globe...

About Starlink 33579

Starlink 33579 (NORAD 62764) is a starlink constellation satellite (v2 mini) launched Jan 21, 2025 by SPXS of US. It operates in LEO, CIRCULAR orbit with a mass of 575.00 kg.

About Starlink 33579

Description loading...

Upcoming Passes

Passes for default location (London). Set your location on the main map for personalized predictions.

Altitude History

Loading altitude history...

Two-Line Element Set

1 62764U 25015G 26171.37008900 .00015647 00000-0 51451-3 0 9994
2 62764 53.1582 204.6929 0001029 78.2556 281.8561 15.31725869 80217
Epoch: Jun 20, 2026 • Age: 22 hours

Current Status

Altitude 489.8 km
Velocity 7.62 km/s
Sub-Earth Point -53.31°S, 104.39°E
Launch Date Jan 21, 2025
Age 1.4 years
Type internet

Technical Details

Classification Payload
Mass 575.00 kg
Dry Mass 530.00 kg
Total Mass 575.00 kg
Length 0.30 m
Diameter 4.10 m
Span 29.00 m
Shape Box + pan
Manufacturer SPXS
Bus Type Starlink V2MO
Phase Status In Orbit
Owner/State SPXS/US

Most Searched